Retour au catalogue

SL-8 R/B

ActifPO
NORAD 22007·ROCKET BODY·🇷🇺 Russia

Lancé Jul 1, 1992 depuis Plesetsk Cosmodrome

Loading…

Prochains Passages (prochaines 24 heures)

TLE

FraisSource: Space-Track

Époque: Sep 14, 2026, 13:59 UTC

1 22007U 92036B   26257.58306599  .00000118  00000-0  10167-3 0  9996
2 22007  82.9312 303.4401 0029535 212.8361 147.0963 13.78290329648248

Suivez SL-8 R/B en temps réel avec AllMySat

Download on the App Store